Ocean City, MD

11:22 AM EDT on April 27, 2017 (GMT -0400)
Ocean City Municipal

Weather History for KOXB - January, 2013

Change the Weather History Date:

Monday, January 14, 2013

  Actual Average (KSBY) Record (KSBY)
Temperature  
Mean Temperature 55 °F -  
Max Temperature 66 °F 43 °F 71 °F (1995)
Min Temperature 44 °F 24 °F 3 °F (1957)
Degree Days  
Heating Degree Days 10    
Growing Degree Days 5 (Base 50)    
Moisture  
Dew Point 52 °F    
Average Humidity 92    
Maximum Humidity 100    
Minimum Humidity 81    
Precipitation  
Precipitation 0.27 in - - ()
Sea Level Pressure  
Sea Level Pressure 30.13 in    
Wind  
Wind Speed 7 mph (NW)    
Max Wind Speed 12 mph    
Max Gust Speed 22 mph    
Visibility 8 miles    
Events Rain    
Averages and records for this station are not official NWS values.
T = Trace of Precipitation, MM = Missing Value Source: NWS Daily Summary

Daily Weather History Graph

Daily Weather History Graph

Search for Another Location

Airport or City:

Trip Planner

Search our weather history database for the weather conditions in past years. The results will help you decide how hot, cold, wet, or windy it might be!

Date:

Astronomy

Jan. 14, 2013 Rise Set
Actual Time 7:16 AM EST 5:03 PM EST
Civil Twilight 6:47 AM EST 5:32 PM EST
Nautical Twilight 6:14 AM EST 6:04 PM EST
Astronomical Twilight 5:43 AM EST 6:36 PM EST
Moon 8:51 AM EST (1/14) 8:42 PM EST (1/14)
Length of Visible Light 10h 44m
Length of Day
9h 47m
Waxing Crescent, 11% of the Moon is Illuminated
Jan 14
Waxing Crescent
Jan 18
First Quarter
Jan 26
Full
Feb 3
Last Quarter
Feb 10
New

Hourly Weather History & Observations

Time (EST) Temp. Windchill Dew Point Humidity Pressure Visibility Wind Dir Wind Speed Gust Speed Precip Events Conditions
12:30 AM 53.6 °F - 53.6 °F 100% 30.04 in 5.0 mi SSW 6.9 mph - N/A   Scattered Clouds
1:53 AM 50.0 °F - 50.0 °F 100% 30.05 in 5.0 mi SSW 4.6 mph - N/A   Clear
2:53 AM 52.0 °F - 52.0 °F 100% 30.06 in 7.0 mi SSW 6.9 mph - N/A   Clear
3:53 AM 50.0 °F - 50.0 °F 100% 30.05 in 5.0 mi SSW 3.5 mph - N/A   Clear
4:53 AM 51.1 °F - 51.1 °F 100% 30.03 in 7.0 mi SSW 5.8 mph - N/A   Clear
5:53 AM 53.1 °F - 53.1 °F 100% 30.02 in 8.0 mi SSW 5.8 mph - N/A   Clear
6:53 AM 55.0 °F - 54.0 °F 96% 30.06 in 10.0 mi WSW 8.1 mph - N/A   Partly Cloudy
7:53 AM 55.9 °F - 55.0 °F 97% 30.07 in 8.0 mi WSW 6.9 mph - N/A   Partly Cloudy
8:53 AM 61.0 °F - 57.9 °F 90% 30.09 in 10.0 mi West 10.4 mph 19.6 mph N/A   Partly Cloudy
9:53 AM 62.1 °F - 59.0 °F 90% 30.10 in 10.0 mi WSW 9.2 mph - N/A   Clear
10:53 AM 64.9 °F - 60.1 °F 84% 30.09 in 10.0 mi West 9.2 mph - N/A   Scattered Clouds
11:53 AM 66.9 °F - 61.0 °F 81% 30.09 in 10.0 mi WNW 9.2 mph 18.4 mph N/A   Overcast
12:02 PM 66.2 °F - 60.8 °F 83% 30.10 in 10.0 mi NW 8.1 mph 21.9 mph N/A   Overcast
12:36 PM 64.4 °F - 60.8 °F 88% 30.10 in 10.0 mi NNW 11.5 mph 18.4 mph N/A   Overcast
12:53 PM 63.0 °F - 60.1 °F 90% 30.11 in 7.0 mi NNW 10.4 mph - 0.01 in Rain Light Rain
1:22 PM 60.8 °F - 57.2 °F 88% 30.11 in 10.0 mi North 9.2 mph - 0.00 in   Overcast
1:53 PM 57.9 °F - 52.0 °F 81% 30.12 in 10.0 mi NNE 11.5 mph 19.6 mph 0.00 in Rain Light Rain
2:36 PM 53.6 °F - 51.8 °F 94% 30.17 in 8.0 mi NNW 4.6 mph - 0.04 in Rain Light Rain
2:53 PM 54.0 °F - 51.1 °F 90% 30.17 in 7.0 mi NE 3.5 mph - 0.05 in Rain Light Rain
3:08 PM 55.4 °F - 51.8 °F 88% 30.16 in 10.0 mi East 3.5 mph - 0.01 in Rain Light Rain
3:53 PM 54.0 °F - 51.1 °F 90% 30.17 in 10.0 mi NNW 5.8 mph - 0.01 in Rain Light Rain
4:53 PM 54.0 °F - 51.1 °F 90% 30.18 in 10.0 mi North 5.8 mph - 0.00 in   Overcast
5:53 PM 54.0 °F - 50.0 °F 86% 30.17 in 10.0 mi Calm Calm - N/A   Overcast
6:53 PM 53.1 °F - 50.0 °F 89% 30.19 in 10.0 mi North 5.8 mph - N/A   Overcast
7:53 PM 52.0 °F - 50.0 °F 93% 30.19 in 9.0 mi North 4.6 mph - 0.02 in Rain Light Rain
8:51 PM 51.8 °F - 50.0 °F 94% 30.21 in 8.0 mi NNW 10.4 mph - 0.03 in Rain Light Rain
8:53 PM 51.1 °F - 50.0 °F 96% 30.21 in 9.0 mi NNW 10.4 mph - 0.03 in Rain Light Rain
9:36 PM 48.2 °F - 46.4 °F 93% 30.21 in 10.0 mi North 9.2 mph 18.4 mph 0.00 in Rain Light Rain
9:53 PM 48.9 °F - 45.0 °F 86% 30.20 in 10.0 mi North 10.4 mph - 0.00 in   Overcast
10:53 PM 46.9 °F - 44.1 °F 90% 30.21 in 9.0 mi North 9.2 mph - 0.00 in Rain Light Rain
11:37 PM 46.4 °F 41.1 °F 44.6 °F 93% 30.21 in 2.5 mi NNE 11.5 mph 20.7 mph 0.09 in Rain Rain
11:45 PM 44.6 °F 39.2 °F 44.6 °F 100% 30.21 in 2.5 mi North 10.4 mph 21.9 mph 0.12 in Rain Rain
11:53 PM 45.0 °F 40.1 °F 44.1 °F 97% 30.22 in 2.5 mi North 9.2 mph - 0.15 in Rain Rain